Meteo pe oră la Abha

Astăzi, 24 Iulie, Sâmbătă

Timp Temperatura Precipitaţii Vânt Presiune Umiditate
00:00 +23°C° 0 mm 0 m/s 641 mmHg 69%
01:00 +25°C° 0 mm 1 m/s 641 mmHg 69%
02:00 +24°C° 0 mm 1 m/s 640 mmHg 69%
03:00 +24°C° 0 mm 2 m/s 640 mmHg 69%
04:00 +24°C° 0 mm 1 m/s 640 mmHg 69%
05:00 +24°C° 0 mm 1 m/s 640 mmHg 68%
06:00 +24°C° 0 mm 1 m/s 640 mmHg 68%
07:00 +25°C° 0 mm 1 m/s 641 mmHg 65%
08:00 +26°C° 0 mm 1 m/s 641 mmHg 62%
09:00 +26°C° 0 mm 2 m/s 641 mmHg 58%
10:00 +26°C° 0.1 mm 2 m/s 641 mmHg 57%
11:00 +27°C° 0.1 mm 2 m/s 641 mmHg 56%
12:00 +27°C° 0.1 mm 3 m/s 641 mmHg 55%
13:00 +28°C° 0.2 mm 3 m/s 641 mmHg 53%
14:00 +29°C° 0.2 mm 4 m/s 641 mmHg 51%
15:00 +29°C° 0.2 mm 4 m/s 641 mmHg 48%
16:00 +29°C° 0.7 mm 3 m/s 641 mmHg 52%
17:00 +28°C° 0.7 mm 3 m/s 641 mmHg 56%
18:00 +27°C° 0.7 mm 2 m/s 641 mmHg 60%
19:00 +27°C° 0.1 mm 2 m/s 641 mmHg 64%
20:00 +26°C° 0.1 mm 1 m/s 641 mmHg 68%
21:00 +26°C° 0.1 mm 1 m/s 641 mmHg 72%
22:00 +25°C° 0.1 mm 1 m/s 641 mmHg 74%
23:00 +25°C° 0.1 mm 1 m/s 641 mmHg 76%

Mâine, 25 Iulie, Duminică

Timp Temperatura Precipitaţii Vânt Presiune Umiditate
00:00 +25°C° 0.1 mm 1 m/s 641 mmHg 78%
01:00 +24°C° 0.3 mm 1 m/s 641 mmHg 80%
02:00 +24°C° 0.3 mm 1 m/s 641 mmHg 82%
03:00 +24°C° 0.3 mm 2 m/s 640 mmHg 84%
04:00 +23°C° 0.2 mm 2 m/s 641 mmHg 84%
05:00 +23°C° 0.2 mm 1 m/s 641 mmHg 85%
06:00 +23°C° 0.2 mm 1 m/s 641 mmHg 85%
07:00 +24°C° 0.1 mm 1 m/s 641 mmHg 82%
08:00 +24°C° 0.1 mm 2 m/s 642 mmHg 79%
09:00 +25°C° 0.1 mm 2 m/s 642 mmHg 77%
10:00 +25°C° 0.2 mm 2 m/s 642 mmHg 73%
11:00 +26°C° 0.2 mm 2 m/s 642 mmHg 70%
12:00 +27°C° 0.2 mm 2 m/s 642 mmHg 67%
13:00 +27°C° 0.6 mm 2 m/s 642 mmHg 67%
14:00 +27°C° 0.6 mm 2 m/s 641 mmHg 67%
15:00 +27°C° 0.6 mm 2 m/s 641 mmHg 67%
16:00 +26°C° 0.5 mm 2 m/s 641 mmHg 70%
17:00 +26°C° 0.5 mm 2 m/s 641 mmHg 73%
18:00 +25°C° 0.5 mm 1 m/s 641 mmHg 75%
19:00 +25°C° 0.3 mm 1 m/s 641 mmHg 77%
20:00 +25°C° 0.3 mm 1 m/s 641 mmHg 79%
21:00 +24°C° 0.3 mm 1 m/s 642 mmHg 80%
22:00 +24°C° 0 mm 1 m/s 642 mmHg 81%
23:00 +24°C° 0 mm 1 m/s 642 mmHg 81%

Poimâine, 26 Iulie, Luni

Timp Temperatura Precipitaţii Vânt Presiune Umiditate
00:00 +24°C° 0 mm 1 m/s 642 mmHg 82%
01:00 +24°C° 0.1 mm 1 m/s 642 mmHg 83%
02:00 +23°C° 0.1 mm 1 m/s 641 mmHg 84%
03:00 +23°C° 0.1 mm 1 m/s 641 mmHg 85%
04:00 +23°C° 0.1 mm 1 m/s 641 mmHg 85%
05:00 +23°C° 0.1 mm 1 m/s 642 mmHg 85%
06:00 +23°C° 0.1 mm 1 m/s 642 mmHg 86%
07:00 +23°C° 0.1 mm 1 m/s 642 mmHg 81%
08:00 +24°C° 0.1 mm 1 m/s 643 mmHg 77%
09:00 +25°C° 0.1 mm 2 m/s 643 mmHg 72%
10:00 +25°C° 0.2 mm 2 m/s 643 mmHg 69%
11:00 +26°C° 0.2 mm 2 m/s 643 mmHg 65%
12:00 +27°C° 0.2 mm 3 m/s 643 mmHg 62%
13:00 +27°C° 0.4 mm 3 m/s 643 mmHg 60%
14:00 +28°C° 0.4 mm 3 m/s 643 mmHg 58%
15:00 +28°C° 0.4 mm 4 m/s 642 mmHg 56%
16:00 +28°C° 0.2 mm 4 m/s 642 mmHg 57%
17:00 +27°C° 0.2 mm 3 m/s 642 mmHg 57%
18:00 +27°C° 0.2 mm 3 m/s 642 mmHg 57%
19:00 +26°C° 0 mm 3 m/s 642 mmHg 58%
20:00 +26°C° 0 mm 2 m/s 642 mmHg 59%
21:00 +25°C° 0 mm 1 m/s 643 mmHg 60%
22:00 +25°C° 0 mm 1 m/s 642 mmHg 61%
23:00 +25°C° 0 mm 1 m/s 642 mmHg 62%

27 Iulie, Marţi

Timp Temperatura Precipitaţii Vânt Presiune Umiditate
00:00 +24°C° 0 mm 1 m/s 642 mmHg 64%
01:00 +24°C° 0 mm 1 m/s 642 mmHg 66%
02:00 +24°C° 0 mm 2 m/s 641 mmHg 68%
03:00 +23°C° 0 mm 2 m/s 641 mmHg 70%
04:00 +23°C° 0 mm 1 m/s 641 mmHg 71%
05:00 +23°C° 0 mm 1 m/s 641 mmHg 72%
06:00 +22°C° 0 mm 1 m/s 641 mmHg 73%
07:00 +23°C° 0 mm 1 m/s 642 mmHg 67%
08:00 +24°C° 0 mm 1 m/s 642 mmHg 61%
09:00 +25°C° 0 mm 2 m/s 643 mmHg 55%
10:00 +26°C° 0 mm 2 m/s 643 mmHg 52%
11:00 +27°C° 0 mm 3 m/s 643 mmHg 48%
12:00 +29°C° 0 mm 3 m/s 643 mmHg 45%
13:00 +29°C° 0 mm 4 m/s 642 mmHg 47%
14:00 +29°C° 0 mm 5 m/s 642 mmHg 48%
15:00 +29°C° 0 mm 5 m/s 642 mmHg 50%
16:00 +28°C° 0.1 mm 5 m/s 641 mmHg 55%
17:00 +27°C° 0.1 mm 5 m/s 641 mmHg 61%
18:00 +26°C° 0.1 mm 4 m/s 641 mmHg 66%
19:00 +26°C° 0 mm 4 m/s 641 mmHg 69%
20:00 +25°C° 0 mm 3 m/s 641 mmHg 72%
21:00 +25°C° 0 mm 3 m/s 641 mmHg 74%
22:00 +25°C° 0 mm 2 m/s 641 mmHg 74%
23:00 +25°C° 0 mm 2 m/s 641 mmHg 74%

28 Iulie, Miercuri

Timp Temperatura Precipitaţii Vânt Presiune Umiditate
00:00 +25°C° 0 mm 2 m/s 641 mmHg 75%
01:00 +24°C° 0 mm 2 m/s 641 mmHg 73%
02:00 +24°C° 0 mm 2 m/s 641 mmHg 71%
03:00 +24°C° 0 mm 1 m/s 640 mmHg 70%
04:00 +24°C° 0 mm 1 m/s 641 mmHg 68%
05:00 +24°C° 0 mm 1 m/s 641 mmHg 66%
06:00 +23°C° 0 mm 1 m/s 641 mmHg 63%
07:00 +24°C° 0 mm 2 m/s 641 mmHg 60%
08:00 +25°C° 0 mm 2 m/s 641 mmHg 57%
09:00 +26°C° 0 mm 2 m/s 642 mmHg 54%
10:00 +27°C° 0 mm 3 m/s 642 mmHg 50%
11:00 +28°C° 0 mm 3 m/s 642 mmHg 46%
12:00 +29°C° 0 mm 3 m/s 642 mmHg 41%
13:00 +30°C° 0 mm 4 m/s 642 mmHg 42%
14:00 +30°C° 0 mm 5 m/s 641 mmHg 42%
15:00 +32°C° 0 mm 5 m/s 641 mmHg 42%
16:00 +30°C° 0 mm 5 m/s 641 mmHg 46%
17:00 +29°C° 0 mm 5 m/s 641 mmHg 49%
18:00 +28°C° 0 mm 4 m/s 641 mmHg 53%
19:00 +28°C° 0 mm 4 m/s 641 mmHg 55%
20:00 +27°C° 0 mm 3 m/s 641 mmHg 58%
21:00 +27°C° 0 mm 2 m/s 641 mmHg 60%
22:00 +27°C° 0 mm 2 m/s 641 mmHg 60%
23:00 +27°C° 0 mm 1 m/s 641 mmHg 61%

29 Iulie, Joi

Timp Temperatura Precipitaţii Vânt Presiune Umiditate
00:00 +26°C° 0 mm 1 m/s 641 mmHg 61%
01:00 +26°C° 0 mm 1 m/s 641 mmHg 60%
02:00 +26°C° 0 mm 1 m/s 641 mmHg 59%
03:00 +26°C° 0 mm 1 m/s 640 mmHg 58%
04:00 +25°C° 0 mm 1 m/s 640 mmHg 59%
05:00 +25°C° 0 mm 1 m/s 641 mmHg 59%
06:00 +25°C° 0 mm 1 m/s 641 mmHg 59%
07:00 +25°C° 0 mm 2 m/s 641 mmHg 58%
08:00 +26°C° 0 mm 2 m/s 642 mmHg 56%
09:00 +27°C° 0 mm 2 m/s 642 mmHg 55%
10:00 +28°C° 0 mm 3 m/s 642 mmHg 51%
11:00 +29°C° 0 mm 3 m/s 642 mmHg 48%
12:00 +30°C° 0 mm 3 m/s 642 mmHg 44%
13:00 +32°C° 0 mm 4 m/s 642 mmHg 43%
14:00 +32°C° 0 mm 5 m/s 642 mmHg 42%
15:00 +33°C° 0 mm 5 m/s 642 mmHg 41%
16:00 +32°C° 0.1 mm 5 m/s 642 mmHg 44%
17:00 +30°C° 0.1 mm 5 m/s 641 mmHg 47%
18:00 +29°C° 0.1 mm 5 m/s 641 mmHg 50%
19:00 +29°C° 0 mm 4 m/s 641 mmHg 51%
20:00 +28°C° 0 mm 3 m/s 641 mmHg 53%
21:00 +28°C° 0 mm 2 m/s 641 mmHg 55%
22:00 +27°C° 0 mm 2 m/s 641 mmHg 56%
23:00 +27°C° 0 mm 2 m/s 641 mmHg 58%
Arată mai mult

Formular de consimțământ

Meteoprog și furnizorii noștri de servicii pot stoca și accesa date personale, precum cookies, identificatori de dispozitiv sau alte tehnologii similare pe dispozitivul dumneavoastră și procesa astfel de date pentru a personaliza conținutul și reclamele, dar și pentru a oferi caracteristici de social media și pentru a analiza traficul.

  • Stocarea și/sau accesarea informațiilor pe dispozitivul dumneavoastră

    Cookies, identificatori de dispozitiv sau alte informații pot fi stocate sau accesate pe dispozitiv în scopurile indicate mai sus.

  • Reclame și conținut personalizat, evaluarea reclamelor și a conținutului, informații despre audiențe și dezvoltarea produselor

    Reclamele și conținutul pot fi personalizate pe baza unui profil. Pot fi adăugate date suplimentare pentru a personaliza mai bine reclamele și conținutul. Performanța reclamelor și conținutului poate fi măsurată. Pot fi obținute informații despre utilizatorii care au văzut reclamele și conținutul. Aceste date pot fi utilizate pentru a dezvolta sau îmbunătăți experiența utilizatorilor, sistemele și software-ul.

Dând clic pe ‘Sunt de acord’, permiteți utilizarea cookie-urilor menționate, a identificatorilor de dispozitiv, balizelor web sau altor tehnologii similare. Setările pot fi modificate din browser-ul dispozitivului dumneavoastră.

În anumite scopuri, interesele legitime pot prima asupra consimțământului. Puteți citi mai multe informații în acest sens în Politica privind Confidențialitatea Datelor și Cookie.